Find Yinhe-8

NORAD ID: 57424 Int'l Des: 2023-104 Owner: YINHE Country: CN Constellation: yinhe operational
LEOCIRCULARRETROGRADESSO

Live Position

Loading 3D Globe...

About Yinhe-8

Description loading...

Upcoming Passes

Passes for default location (London). Set your location on the main map for personalized predictions.

Altitude History

Loading altitude history...

Two-Line Element Set

1 57424U 23104A 26107.28610193 .00005948 00000-0 18443-3 0 9997
2 57424 97.2733 176.4257 0006648 346.6385 13.4680 15.33772282152703
Epoch: Apr 17, 2026 • Age: 8 hours

Current Status

Altitude 465.5 km
Velocity 7.64 km/s
Sub-Earth Point 31.36°N, 104.09°E
Launch Date Jul 23, 2023
Age 2.7 years
Type other

Technical Details

Classification Payload
Mass 300.00 kg
Dry Mass 300.00 kg
Total Mass 300.00 kg
Length 0.60 m
Diameter 3.40 m
Span 10.00 m
Shape Box + Pan
Manufacturer YINHE
Phase Status In Orbit
Owner/State YINHE/CN

Most Searched